Location: Bienfait
(49.1431°N, 102.8077°W)
Time: 03:40:25
(UTC+00:00)

Envisat - Visible Passes

Search period start: 27 January 2022 00:00
Search period end: 06 February 2022 00:00
Orbit: 764 x 766 km, 98.2° (Epoch: 26 January)

Date Brightness Start Highest point End Pass type
(mag) Time Alt. Az. Time Alt. Az. Time Alt. Az.
27 Jan 5.7 10:25:37 10° NE 10:28:30 15° E 10:31:22 10° ESE visible
27 Jan 2.8 12:03:04 10° NNE 12:08:11 83° WNW 12:13:16 10° SSW visible
27 Jan 4.5 13:43:38 10° NNW 13:46:26 15° NW 13:49:14 10° W visible
28 Jan 3.8 11:26:17 10° NNE 11:31:14 49° E 11:36:09 10° S visible
28 Jan 3.9 13:05:46 10° N 13:10:01 27° WNW 13:14:14 10° WSW visible
29 Jan 6.1 00:27:19 10° WSW 00:29:37 13° W 00:31:56 10° WNW visible
29 Jan 5.1 10:49:57 10° NE 10:54:05 24° E 10:58:12 10° SSE visible
29 Jan 3.1 12:28:28 10° N 12:33:24 52° WNW 12:38:18 10° SW visible
30 Jan 5.9 10:14:52 10° ENE 10:16:43 12° E 10:18:36 10° ESE visible
30 Jan 3.0 11:51:28 10° NNE 11:56:34 80° ESE 12:01:40 10° SSW visible
30 Jan 4.4 13:31:38 10° NNW 13:34:59 18° WNW 13:38:21 10° W visible
31 Jan 4.2 11:14:48 10° NNE 11:19:35 39° E 11:24:19 10° SSE visible
31 Jan 3.6 12:54:00 10° N 12:58:31 33° WNW 13:03:00 10° SW visible
01 Feb 5.4 10:38:40 10° NE 10:42:22 20° E 10:46:02 10° SE visible
01 Feb 2.9 12:16:47 10° N 12:21:50 64° WNW 12:26:51 10° SSW visible
02 Feb 3.3 11:39:53 10° NNE 11:44:58 65° ESE 11:50:00 10° S visible
02 Feb 4.2 13:19:44 10° N 13:23:32 22° WNW 13:27:19 10° WSW visible
03 Feb 4.6 11:03:21 10° NNE 11:07:54 32° E 11:12:25 10° SSE visible
03 Feb 3.4 12:42:16 10° N 12:47:00 40° WNW 12:51:42 10° SW visible
04 Feb 5.6 10:27:32 10° NE 10:30:37 16° E 10:33:42 10° SE visible
04 Feb 2.8 12:05:09 10° NNE 12:10:16 79° WNW 12:15:20 10° SSW visible
05 Feb 3.7 11:28:21 10° NNE 11:33:19 52° E 11:38:17 10° S visible
05 Feb 3.9 13:07:55 10° N 13:12:03 26° WNW 13:16:12 10° WSW visible
